SCP
0 0 0 0 -0 -0 -0 -0 -0 -0 -0 -0 -0 -0 -0 -0 -0 -0 -0 0 0 0 0 -0 -0 -0 -0 0 0 -0 0 0 -0 0 0 0 0 0 0 -0 -0 0 -0 -0 -0
0 0 0 0 0 -0 -0 -0 -0 -0 -0 -0 -0 -0 -0 -0 -0 0 -0 -0 -0 0 0 0 0 -0 -0 -0 0 -0 0 0 -0 0 0 0 0 -0 -0 -0 -0 -0 -0 -0 -1
0 0 0 0 0 0 -0 -0 -0 -0 -0 -0 -0 -0 -0 -0 0 0 0 -0 0 0 0 0 0 -0 0 0 0 0 -0 0 -0 -0 0 0 0 0 -0 0 -0 -0 -0 -0 -0
0 0 0 0 0 0 0 0 -0 -0 -0 -0 -0 -0 -0 -0 0 0 0 0 -0 0 0 0 0 0 0 0 -0 -0 -0 -0 -0 0 0 0 0 0 -0 -0 -0 -0 -0 -0 -0
0 0 0 0 0 0 -0 -0 -0 0 0 0 -0 -0 0 -0 0 -0 0 0 0 0 0 0 0 0 0 -0 -0 -0 0 -0 -0 0 -0 -0 0 0 -0 -0 -0 -0 -0 -0 -0
0 0 0 0 0 0 0 0 -0 0 0 0 0 0 -0 -0 0 -0 0 0 0 -0 0 0 0 0 0 0 -0 -0 -0 -0 0 -0 0 0 0 0 -0 -0 -0 -0 -0 -0 0
0 0 0 0 0 0 0 0 -0 0 0 0 0 0 -0 -0 0 0 0 0 0 0 0 0 0 0 0 -0 0 -0 0 0 0 -0 0 0 -0 0 -0 -0 -0 -0 0 -0 0
0 0 0 0 0 0 0 0 -0 0 0 0 0 0 -0 0 0 -0 0 0 0 0 0 0 0 0 0 0 -0 -0 -0 0 -0 0 0 0 -0 0 0 -0 -0 -0 -0 -0 0
0 0 0 0 0 0 0 -0 0 0 0 0 0 0 0 0 0 0 0 0 0 0 0 0 0 0 0 0 0 0 0 0 0 -0 0 0 0 0 0 0 -0 -0 -0 -0 -0
0 0 0 0 0 0 0 0 0 0 0 0 0 0 0 0 0 0 0 -0 0 0 0 0 0 0 0 -0 -0 -0 0 0 -0 0 0 -0 -0 -0 -0 -0 0 0 -0 -0 -0
0 0 0 0 0 0 0 0 0 0 0 0 0 0 0 0 0 0 0 -0 0 0 0 0 0 0 0 -0 -0 -0 0 -0 -0 0 -0 -0 -0 0 -0 -0 -0 0 -0 -0 -0
0 0 0 0 0 0 0 0 0 0 0 0 0 0 0 0 0 -0 0 0 0 0 0 0 0 0 0 -0 -0 0 0 0 0 -0 -0 -0 0 0 0 0 -0 -0 -0 -0 -0
0 0 0 0 0 0 0 0 0 0 0 0 0 0 -0 0 0 -0 0 0 0 0 0 0 0 -0 0 0 -0 0 0 0 0 -0 -0 -0 0 -0 -0 -0 0 -0 -0 -0 -0
0 0 0 0 0 0 0 0 0 0 0 0 0 0 0 0 0 0 0 0 0 0 0 0 0 -0 0 0 -0 0 -0 0 -0 -0 0 0 -0 0 0 0 0 0 0 -0 -0
0 0 0 0 0 0 0 0 0 0 0 0 0 0 0 0 0 0 0 0 0 0 0 -0 0 0 0 -0 -0 -0 -0 -0 0 0 0 0 0 -0 0 -0 -0 0 -0 0 0
0 0 0 -0 0 0 0 0 0 0 0 0 -0 -0 0 0 0 0 0 0 0 0 0 0 -0 -0 0 0 0 -0 -0 0 0 0 0 0 0 0 0 0 0 0 0 0 0
0 0 0 0 0 0 0 0 0 0 0 0 0 0 0 0 0 0 0 0 0 0 0 0 -0 -0 -0 0 0 0 0 0 0 0 0 0 0 0 0 -0 0 0 0 0 0
-0 -0 -0 0 0 0 0 0 0 0 0 0 0 0 0 0 0 0 0 0 0 0 0 0 0 -0 0 0 0 0 0 0 0 0 0 0 0 0 0 -0 0 -0 0 -0 0
-0 -0 0 0 0 0 0 0 0 0 0 0 0 0 -0 -0 0 0 0 -0 -0 0 0 0 0 0 -0 0 -0 0 0 0 0 0 0 0 0 0 0 0 0 0 0 -0 0
0 0 0 0 0 0 0 0 -0 0 0 0 0 0 0 0 0 -0 0 0 -0 0 0 -0 0 0 0 -0 0 -0 0 0 0 0 0 0 0 0 0 0 0 0 0 -0 0
0 0 0 0 0 0 0 0 -0 -0 0 0 0 0 0 0 0 0 -0 0 0 -0 0 0 0 0 -0 -0 0 0 0 0 0 0 0 0 0 0 0 0 0 0 0 -0 0
0 0 0 0 0 0 0 0 0 -0 0 0 0 0 0 0 0 0 -0 -0 0 0 0 0 0 0 0 0 0 0 0 0 0 0 0 0 0 0 -0 -0 -0 0 0 -0 0
0 0 0 0 0 0 0 0 0 0 0 0 0 0 0 0 0 0 0 0 0 -0 -0 0 0 0 0 0 0 0 0 0 0 0 0 0 0 0 -0 -0 -0 -0 0 0 -0
0 0 0 0 0 0 0 0 0 0 0 0 0 -0 0 0 -0 0 0 -0 0 0 0 0 0 0 0 0 0 0 0 0 0 0 0 0 0 0 -0 -0 -0 0 0 -0 -0
0 0 0 0 0 0 0 0 0 0 0 0 0 0 0 0 0 0 0 0 0 0 0 0 0 0 0 -0 0 -0 0 0 0 0 0 0 0 0 0 0 -0 0 0 0 -0
0 0 0 0 0 0 0 0 0 0 0 0 0 0 0 0 0 0 0 0 0 0 0 0 0 0 0 0 0 0 0 0 0 0 0 0 0 -0 0 -0 0 -0 0 0 0
0 0 0 0 0 0 0 0 0 0 0 0 0 -0 0 0 0 -0 0 0 0 0 0 0 0 0 0 0 0 0 0 0 0 -0 0 0 0 0 0 -0 -0 0 0 0 0
Wind_Speed_500mb
14 12 13 16 18 19 21 20 20 21 24 26 28 32 37 36 28 27 33 18 17 17 28 33 37 30 32 29 23 14 9 12 3 8 7 14 7 21 36 53 38 17 62 74 75
15 15 14 15 17 21 23 24 23 24 26 27 28 32 37 39 36 25 22 17 17 24 30 32 38 39 17 11 12 14 10 15 24 4 15 16 21 35 34 31 15 36 55 75 80
16 16 16 16 16 19 23 26 26 27 28 29 29 31 35 36 33 10 22 18 24 26 26 30 34 31 9 15 11 13 9 22 32 50 14 23 22 18 39 7 55 60 79 72 79
16 16 16 16 17 17 20 23 26 28 28 29 28 31 31 29 2 5 11 18 20 20 26 29 20 18 6 14 20 20 23 83 54 26 25 22 16 15 27 18 57 59 89 72 73
18 18 18 16 17 18 19 21 23 26 28 27 26 29 28 20 20 9 4 15 21 20 28 26 36 26 5 22 46 33 20 61 49 14 36 23 2 10 34 54 58 57 75 72 67
20 20 20 20 20 19 20 20 21 23 25 25 24 26 26 14 18 22 13 20 10 17 23 27 38 47 5 13 12 24 53 51 26 11 21 16 4 16 44 61 56 62 60 57 59
20 21 21 21 22 21 21 21 21 20 20 21 22 26 36 48 13 7 21 21 18 24 28 32 45 30 21 16 39 33 12 5 13 12 7 15 7 12 55 62 59 57 54 49 45
23 22 22 22 23 23 21 21 20 17 16 18 19 26 28 19 21 34 21 21 18 25 34 35 32 36 21 38 6 8 7 5 6 14 8 15 6 20 39 60 55 62 62 63 57
26 24 24 24 24 23 21 22 19 14 14 16 15 16 29 15 27 32 21 23 19 24 27 33 46 7 25 14 5 7 3 3 0 6 1 9 3 4 4 36 56 58 65 64 61
28 27 26 25 25 24 22 22 16 14 14 15 19 15 30 16 20 26 20 35 29 26 36 25 24 7 3 8 8 10 4 5 7 5 11 5 6 12 13 20 13 37 64 68 66
30 29 27 26 25 24 18 16 8 1 12 25 15 31 40 15 19 25 31 27 34 23 8 35 5 11 16 19 6 15 8 3 5 12 5 3 6 10 20 21 16 7 42 67 70
33 32 29 25 24 21 21 14 8 10 19 33 40 60 62 54 29 22 8 26 11 12 3 11 7 22 9 16 30 15 11 12 10 24 9 4 9 18 23 29 40 25 25 61 71
35 34 30 24 21 19 16 11 19 26 10 31 51 51 53 16 27 42 17 20 7 5 14 12 20 4 8 12 17 4 11 12 9 13 11 12 13 17 14 20 14 25 27 54 75
38 36 32 23 14 12 3 14 21 9 9 15 13 21 39 28 15 38 32 15 6 15 9 14 17 13 16 14 19 8 30 22 26 13 4 7 7 12 12 29 23 39 33 51 63
39 39 29 28 17 14 12 10 8 4 6 8 10 7 23 27 4 7 45 25 17 15 12 19 11 8 6 12 26 16 28 27 6 12 11 6 6 14 6 19 34 31 33 28 50
41 40 34 30 24 11 10 3 4 10 11 7 18 16 14 22 12 8 15 30 20 11 11 16 6 8 16 10 16 21 16 6 10 10 6 14 17 8 4 9 6 7 13 16 20
42 41 42 28 12 8 7 4 9 7 13 3 8 13 13 14 9 8 9 7 11 7 8 15 12 10 16 9 4 9 11 0 7 8 10 6 7 12 9 4 9 8 17 32 29
46 43 35 24 21 16 3 9 5 9 13 11 1 9 16 14 13 9 8 12 7 9 5 9 16 9 8 16 20 14 15 11 8 5 8 6 8 9 11 35 49 39 15 18 18
50 38 26 11 29 24 8 5 13 13 6 19 16 12 8 11 12 12 16 14 18 19 18 9 14 12 10 9 17 8 6 11 14 6 6 3 3 12 17 9 32 37 22 23 37
47 32 17 16 32 28 8 11 11 8 14 11 6 5 6 8 9 13 14 14 18 24 19 14 7 12 25 7 4 20 16 9 6 9 6 8 4 9 12 10 19 14 5 16 30
32 17 5 23 34 13 6 13 15 33 30 9 21 19 8 7 17 12 16 13 22 17 21 12 9 32 5 11 15 2 3 11 12 10 12 10 9 13 22 16 21 28 20 28 48
13 4 12 29 7 5 6 10 11 21 59 21 13 11 3 6 9 18 22 22 41 26 19 23 12 14 24 14 12 14 20 15 11 11 3 6 11 19 33 33 24 14 10 40 51
24 8 31 31 4 5 13 13 18 26 28 11 11 10 6 6 5 5 5 41 33 20 21 13 5 9 24 17 8 2 9 5 9 8 17 13 11 12 13 17 31 5 23 47 52
9 5 7 39 24 6 9 15 13 29 28 26 20 4 12 12 2 9 10 10 20 22 36 25 9 14 18 17 3 11 6 9 12 9 11 14 14 11 28 23 9 21 41 64 75
5 3 5 6 7 7 3 9 25 23 12 33 13 4 5 7 15 8 10 15 12 6 11 14 10 13 14 15 9 13 15 15 12 13 13 14 26 37 43 30 24 42 36 53 72
4 5 8 9 18 4 9 7 20 33 11 31 11 18 11 9 15 14 5 2 4 12 14 9 10 13 8 6 11 10 20 16 9 8 7 21 6 17 30 42 36 43 32 54 62
7 10 4 8 4 4 6 9 21 18 22 24 16 11 11 13 27 23 18 12 8 9 3 3 8 6 12 4 10 10 17 13 10 5 20 15 18 19 14 26 31 44 48 57 53
Wind_Direction_500mb
347 326 297 282 281 283 285 287 291 298 303 307 314 318 319 315 305 280 258 228 266 297 299 304 300 313 319 280 248 218 45 70 309 166 173 171 123 140 157 138 149 188 161 161 164
351 340 326 304 284 278 279 285 289 291 295 303 308 314 321 320 315 256 200 232 284 291 298 302 301 324 307 274 216 63 10 9 345 221 161 185 141 135 123 130 117 122 150 156 164
348 342 334 322 308 291 281 280 280 283 288 296 304 312 320 323 324 254 215 244 270 282 294 289 304 320 327 298 178 64 358 341 346 344 153 155 126 131 118 117 147 141 155 156 164
342 337 334 328 318 304 291 280 276 276 279 288 300 306 317 318 316 81 178 251 268 275 275 286 312 330 342 0 91 102 35 9 323 314 37 330 118 119 140 169 157 154 165 160 173
336 334 331 326 319 311 304 295 285 275 275 279 291 301 313 299 254 148 143 304 273 277 270 299 304 300 275 113 80 111 104 172 230 322 15 39 116 114 125 148 153 154 168 172 172
334 329 327 324 319 314 309 303 296 283 273 275 284 295 301 273 228 255 239 273 265 279 284 292 290 306 315 95 84 152 162 200 245 28 0 11 315 100 135 144 151 161 168 175 186
336 329 324 321 316 314 310 306 300 288 274 271 279 290 285 257 192 233 233 263 276 275 291 293 295 310 120 91 128 138 114 214 50 10 315 348 34 115 148 150 154 164 170 183 193
338 329 322 316 312 311 308 303 299 289 273 266 276 290 271 277 263 238 223 252 267 269 272 286 292 325 118 134 143 93 67 46 295 154 319 60 66 60 147 157 165 174 181 191 196
341 330 322 316 312 309 308 299 297 280 262 255 273 281 269 257 232 212 223 240 269 274 260 275 289 117 130 123 76 45 135 270 109 115 212 64 224 203 131 186 173 182 189 194 203
342 332 324 318 313 308 311 304 295 277 262 259 246 287 254 263 240 212 235 236 251 258 290 293 292 64 46 90 210 184 201 241 186 155 197 116 214 247 97 146 149 209 192 197 204
341 334 324 318 311 310 310 312 319 269 282 244 244 230 280 302 323 254 265 220 229 264 279 295 62 253 219 193 148 149 163 193 135 204 104 97 334 263 328 278 213 195 219 202 206
338 334 324 316 305 303 304 296 276 317 295 271 258 264 271 275 295 280 238 201 178 216 249 0 249 237 192 149 130 118 117 280 88 154 95 13 296 286 283 272 212 215 215 216 210
337 333 324 312 299 291 290 326 338 313 288 280 237 237 250 259 242 264 242 199 163 221 248 176 246 12 168 150 121 151 159 222 172 147 69 101 326 290 280 294 313 228 225 216 211
333 332 328 316 294 272 310 15 355 306 25 275 202 233 228 238 280 239 239 233 146 206 242 243 270 213 176 166 135 127 229 245 145 135 196 126 260 272 259 294 297 276 257 217 212
328 326 325 312 278 267 314 343 17 158 353 239 180 193 192 180 304 229 226 233 201 227 114 243 285 237 176 211 156 198 236 248 90 114 103 259 69 265 106 259 266 257 266 225 214
321 321 314 302 272 253 275 284 354 48 260 267 162 159 118 205 239 348 181 219 237 223 257 238 297 225 219 166 181 178 240 30 351 132 120 211 200 285 161 255 34 93 45 192 150
316 316 302 275 248 200 225 349 52 166 309 224 180 148 160 185 247 171 259 242 178 155 287 314 291 265 264 100 127 95 79 7 13 28 202 209 142 247 280 173 148 305 21 91 103
318 313 292 259 225 215 209 62 206 265 252 285 3 117 181 173 239 207 163 233 242 118 114 201 307 195 221 177 189 180 155 149 174 197 251 281 205 267 243 249 47 7 297 91 144
325 317 288 219 193 191 171 107 213 224 297 359 330 122 252 217 176 168 196 206 224 172 173 172 263 311 282 240 146 204 138 167 106 356 87 186 347 310 325 90 74 37 46 150 180
331 322 287 184 183 177 84 235 235 237 340 40 318 62 241 276 172 159 193 206 227 199 164 218 267 245 283 337 243 167 158 71 8 135 201 294 257 201 242 208 153 98 217 211 211
334 329 80 160 162 153 171 239 281 288 321 0 305 269 188 203 194 215 211 242 205 211 171 152 131 271 113 201 227 126 156 58 115 133 160 163 244 206 222 221 229 154 181 221 195
350 350 156 168 112 192 208 220 281 298 298 291 259 231 240 270 286 211 215 202 206 174 167 196 166 226 234 255 237 207 199 153 133 205 156 158 251 193 210 225 247 209 194 194 182
336 295 184 181 161 265 302 291 275 274 277 294 307 310 348 277 343 225 279 244 225 153 169 178 199 283 314 338 3 232 156 153 95 90 180 146 250 221 224 255 240 261 156 162 165
315 342 189 223 235 115 10 292 282 295 274 263 258 1 28 338 188 288 312 299 206 186 174 130 133 160 218 222 202 302 266 182 157 131 178 199 180 222 230 239 235 208 164 155 154
261 322 29 321 343 10 70 282 296 296 289 304 279 185 245 308 329 355 337 343 342 146 110 120 175 171 226 239 255 258 272 262 174 209 162 205 170 198 216 194 212 185 160 157 155
334 18 357 278 284 19 3 267 328 327 220 293 257 260 248 210 204 276 312 255 276 353 4 350 210 169 253 302 309 287 288 264 256 237 186 151 222 215 175 194 191 188 171 162 166
317 296 315 278 275 96 239 280 298 330 307 307 297 257 266 270 291 255 266 291 238 139 270 72 129 101 254 324 7 330 260 261 287 237 137 157 207 143 146 192 191 198 182 170 175
Wind_Speed_850mb
14 12 13 16 18 19 21 20 20 21 24 26 28 32 37 36 28 27 33 18 17 17 28 33 37 30 32 29 23 14 9 12 3 8 7 14 7 21 36 53 38 17 62 74 75
15 15 14 15 17 21 23 24 23 24 26 27 28 32 37 39 36 25 22 17 17 24 30 32 38 39 17 11 12 14 10 15 24 4 15 16 21 35 34 31 15 36 55 75 80
16 16 16 16 16 19 23 26 26 27 28 29 29 31 35 36 33 10 22 18 24 26 26 30 34 31 9 15 11 13 9 22 32 50 14 23 22 18 39 7 55 60 79 72 79
16 16 16 16 17 17 20 23 26 28 28 29 28 31 31 29 2 5 11 18 20 20 26 29 20 18 6 14 20 20 23 83 54 26 25 22 16 15 27 18 57 59 89 72 73
18 18 18 16 17 18 19 21 23 26 28 27 26 29 28 20 20 9 4 15 21 20 28 26 36 26 5 22 46 33 20 61 49 14 36 23 2 10 34 54 58 57 75 72 67
20 20 20 20 20 19 20 20 21 23 25 25 24 26 26 14 18 22 13 20 10 17 23 27 38 47 5 13 12 24 53 51 26 11 21 16 4 16 44 61 56 62 60 57 59
20 21 21 21 22 21 21 21 21 20 20 21 22 26 36 48 13 7 21 21 18 24 28 32 45 30 21 16 39 33 12 5 13 12 7 15 7 12 55 62 59 57 54 49 45
23 22 22 22 23 23 21 21 20 17 16 18 19 26 28 19 21 34 21 21 18 25 34 35 32 36 21 38 6 8 7 5 6 14 8 15 6 20 39 60 55 62 62 63 57
26 24 24 24 24 23 21 22 19 14 14 16 15 16 29 15 27 32 21 23 19 24 27 33 46 7 25 14 5 7 3 3 0 6 1 9 3 4 4 36 56 58 65 64 61
28 27 26 25 25 24 22 22 16 14 14 15 19 15 30 16 20 26 20 35 29 26 36 25 24 7 3 8 8 10 4 5 7 5 11 5 6 12 13 20 13 37 64 68 66
30 29 27 26 25 24 18 16 8 1 12 25 15 31 40 15 19 25 31 27 34 23 8 35 5 11 16 19 6 15 8 3 5 12 5 3 6 10 20 21 16 7 42 67 70
33 32 29 25 24 21 21 14 8 10 19 33 40 60 62 54 29 22 8 26 11 12 3 11 7 22 9 16 30 15 11 12 10 24 9 4 9 18 23 29 40 25 25 61 71
35 34 30 24 21 19 16 11 19 26 10 31 51 51 53 16 27 42 17 20 7 5 14 12 20 4 8 12 17 4 11 12 9 13 11 12 13 17 14 20 14 25 27 54 75
38 36 32 23 14 12 3 14 21 9 9 15 13 21 39 28 15 38 32 15 6 15 9 14 17 13 16 14 19 8 30 22 26 13 4 7 7 12 12 29 23 39 33 51 63
39 39 29 28 17 14 12 10 8 4 6 8 10 7 23 27 4 7 45 25 17 15 12 19 11 8 6 12 26 16 28 27 6 12 11 6 6 14 6 19 34 31 33 28 50
41 40 34 30 24 11 10 3 4 10 11 7 18 16 14 22 12 8 15 30 20 11 11 16 6 8 16 10 16 21 16 6 10 10 6 14 17 8 4 9 6 7 13 16 20
42 41 42 28 12 8 7 4 9 7 13 3 8 13 13 14 9 8 9 7 11 7 8 15 12 10 16 9 4 9 11 0 7 8 10 6 7 12 9 4 9 8 17 32 29
46 43 35 24 21 16 3 9 5 9 13 11 1 9 16 14 13 9 8 12 7 9 5 9 16 9 8 16 20 14 15 11 8 5 8 6 8 9 11 35 49 39 15 18 18
50 38 26 11 29 24 8 5 13 13 6 19 16 12 8 11 12 12 16 14 18 19 18 9 14 12 10 9 17 8 6 11 14 6 6 3 3 12 17 9 32 37 22 23 37
47 32 17 16 32 28 8 11 11 8 14 11 6 5 6 8 9 13 14 14 18 24 19 14 7 12 25 7 4 20 16 9 6 9 6 8 4 9 12 10 19 14 5 16 30
32 17 5 23 34 13 6 13 15 33 30 9 21 19 8 7 17 12 16 13 22 17 21 12 9 32 5 11 15 2 3 11 12 10 12 10 9 13 22 16 21 28 20 28 48
13 4 12 29 7 5 6 10 11 21 59 21 13 11 3 6 9 18 22 22 41 26 19 23 12 14 24 14 12 14 20 15 11 11 3 6 11 19 33 33 24 14 10 40 51
24 8 31 31 4 5 13 13 18 26 28 11 11 10 6 6 5 5 5 41 33 20 21 13 5 9 24 17 8 2 9 5 9 8 17 13 11 12 13 17 31 5 23 47 52
9 5 7 39 24 6 9 15 13 29 28 26 20 4 12 12 2 9 10 10 20 22 36 25 9 14 18 17 3 11 6 9 12 9 11 14 14 11 28 23 9 21 41 64 75
5 3 5 6 7 7 3 9 25 23 12 33 13 4 5 7 15 8 10 15 12 6 11 14 10 13 14 15 9 13 15 15 12 13 13 14 26 37 43 30 24 42 36 53 72
4 5 8 9 18 4 9 7 20 33 11 31 11 18 11 9 15 14 5 2 4 12 14 9 10 13 8 6 11 10 20 16 9 8 7 21 6 17 30 42 36 43 32 54 62
7 10 4 8 4 4 6 9 21 18 22 24 16 11 11 13 27 23 18 12 8 9 3 3 8 6 12 4 10 10 17 13 10 5 20 15 18 19 14 26 31 44 48 57 53
Wind_Direction_850mb
347 326 297 282 281 283 285 287 291 298 303 307 314 318 319 315 305 280 258 228 266 297 299 304 300 313 319 280 248 218 45 70 309 166 173 171 123 140 157 138 149 188 161 161 164
351 340 326 304 284 278 279 285 289 291 295 303 308 314 321 320 315 256 200 232 284 291 298 302 301 324 307 274 216 63 10 9 345 221 161 185 141 135 123 130 117 122 150 156 164
348 342 334 322 308 291 281 280 280 283 288 296 304 312 320 323 324 254 215 244 270 282 294 289 304 320 327 298 178 64 358 341 346 344 153 155 126 131 118 117 147 141 155 156 164
342 337 334 328 318 304 291 280 276 276 279 288 300 306 317 318 316 81 178 251 268 275 275 286 312 330 342 0 91 102 35 9 323 314 37 330 118 119 140 169 157 154 165 160 173
336 334 331 326 319 311 304 295 285 275 275 279 291 301 313 299 254 148 143 304 273 277 270 299 304 300 275 113 80 111 104 172 230 322 15 39 116 114 125 148 153 154 168 172 172
334 329 327 324 319 314 309 303 296 283 273 275 284 295 301 273 228 255 239 273 265 279 284 292 290 306 315 95 84 152 162 200 245 28 0 11 315 100 135 144 151 161 168 175 186
336 329 324 321 316 314 310 306 300 288 274 271 279 290 285 257 192 233 233 263 276 275 291 293 295 310 120 91 128 138 114 214 50 10 315 348 34 115 148 150 154 164 170 183 193
338 329 322 316 312 311 308 303 299 289 273 266 276 290 271 277 263 238 223 252 267 269 272 286 292 325 118 134 143 93 67 46 295 154 319 60 66 60 147 157 165 174 181 191 196
341 330 322 316 312 309 308 299 297 280 262 255 273 281 269 257 232 212 223 240 269 274 260 275 289 117 130 123 76 45 135 270 109 115 212 64 224 203 131 186 173 182 189 194 203
342 332 324 318 313 308 311 304 295 277 262 259 246 287 254 263 240 212 235 236 251 258 290 293 292 64 46 90 210 184 201 241 186 155 197 116 214 247 97 146 149 209 192 197 204
341 334 324 318 311 310 310 312 319 269 282 244 244 230 280 302 323 254 265 220 229 264 279 295 62 253 219 193 148 149 163 193 135 204 104 97 334 263 328 278 213 195 219 202 206
338 334 324 316 305 303 304 296 276 317 295 271 258 264 271 275 295 280 238 201 178 216 249 0 249 237 192 149 130 118 117 280 88 154 95 13 296 286 283 272 212 215 215 216 210
337 333 324 312 299 291 290 326 338 313 288 280 237 237 250 259 242 264 242 199 163 221 248 176 246 12 168 150 121 151 159 222 172 147 69 101 326 290 280 294 313 228 225 216 211
333 332 328 316 294 272 310 15 355 306 25 275 202 233 228 238 280 239 239 233 146 206 242 243 270 213 176 166 135 127 229 245 145 135 196 126 260 272 259 294 297 276 257 217 212
328 326 325 312 278 267 314 343 17 158 353 239 180 193 192 180 304 229 226 233 201 227 114 243 285 237 176 211 156 198 236 248 90 114 103 259 69 265 106 259 266 257 266 225 214
321 321 314 302 272 253 275 284 354 48 260 267 162 159 118 205 239 348 181 219 237 223 257 238 297 225 219 166 181 178 240 30 351 132 120 211 200 285 161 255 34 93 45 192 150
316 316 302 275 248 200 225 349 52 166 309 224 180 148 160 185 247 171 259 242 178 155 287 314 291 265 264 100 127 95 79 7 13 28 202 209 142 247 280 173 148 305 21 91 103
318 313 292 259 225 215 209 62 206 265 252 285 3 117 181 173 239 207 163 233 242 118 114 201 307 195 221 177 189 180 155 149 174 197 251 281 205 267 243 249 47 7 297 91 144
325 317 288 219 193 191 171 107 213 224 297 359 330 122 252 217 176 168 196 206 224 172 173 172 263 311 282 240 146 204 138 167 106 356 87 186 347 310 325 90 74 37 46 150 180
331 322 287 184 183 177 84 235 235 237 340 40 318 62 241 276 172 159 193 206 227 199 164 218 267 245 283 337 243 167 158 71 8 135 201 294 257 201 242 208 153 98 217 211 211
334 329 80 160 162 153 171 239 281 288 321 0 305 269 188 203 194 215 211 242 205 211 171 152 131 271 113 201 227 126 156 58 115 133 160 163 244 206 222 221 229 154 181 221 195
350 350 156 168 112 192 208 220 281 298 298 291 259 231 240 270 286 211 215 202 206 174 167 196 166 226 234 255 237 207 199 153 133 205 156 158 251 193 210 225 247 209 194 194 182
336 295 184 181 161 265 302 291 275 274 277 294 307 310 348 277 343 225 279 244 225 153 169 178 199 283 314 338 3 232 156 153 95 90 180 146 250 221 224 255 240 261 156 162 165
315 342 189 223 235 115 10 292 282 295 274 263 258 1 28 338 188 288 312 299 206 186 174 130 133 160 218 222 202 302 266 182 157 131 178 199 180 222 230 239 235 208 164 155 154
261 322 29 321 343 10 70 282 296 296 289 304 279 185 245 308 329 355 337 343 342 146 110 120 175 171 226 239 255 258 272 262 174 209 162 205 170 198 216 194 212 185 160 157 155
334 18 357 278 284 19 3 267 328 327 220 293 257 260 248 210 204 276 312 255 276 353 4 350 210 169 253 302 309 287 288 264 256 237 186 151 222 215 175 194 191 188 171 162 166
317 296 315 278 275 96 239 280 298 330 307 307 297 257 266 270 291 255 266 291 238 139 270 72 129 101 254 324 7 330 260 261 287 237 137 157 207 143 146 192 191 198 182 170 175